Location: Berduj
(43.0019°N, 22.3781°E)
Time: 14:26:36
(UTC+00:00)

Cosmos 1703 - Pass Details

Date: 19 October 2019
Orbit: 523 x 542 km, 82.5° (Epoch: 20 November)

Event Time Altitude Azimuth Distance (km) Brightness Sun altitude
Rises 16:56:29 0° 348° (NNW) 2,694 7.0 -14.3°
Reaches altitude 10° 16:58:39 10° 346° (NNW) 1,795 6.1 -14.7°
Maximum altitude 17:02:34 65° 265° (W) 586 3.7 -15.4°
Drops below altitude 10° 17:06:25 10° 183° (S) 1,768 5.9 -16.1°
Sets 17:08:32 0° 180° (S) 2,650 6.8 -16.5°
